Location: Unspecified
(50.7693°N, 0.0000°E)
Time: 01:36:26
(UTC+00:00)

Vanguard 2 - Pass Details

Date: 24 June 2019
Orbit: 553 x 2938 km, 32.9° (Epoch: 18 August)

Event Time Altitude Azimuth Distance (km) Brightness Sun altitude
Rises 12:41:59 0° 252° (WSW) 4,224 11.6 61.6°
Reaches altitude 10° 12:46:11 10° 230° (SW) 3,692 11.6 61.4°
Maximum altitude 12:51:11 15° 199° (SSW) 3,775 11.8 61.1°
Drops below altitude 10° 12:57:19 10° 170° (S) 4,715 12.1 60.6°
Sets 13:04:11 0° 152° (SSE) 6,207 12.4 60.1°
